Wind_Speed
23 23 22 21 20 19 19 19 18 18 17 16 15 16 15 14 14 18 16 16 27 31 29 24 19 12 12 8 5 4 6 2 10 9 16 21 12 14 5 4 8 8 4 15 23
21 23 24 23 22 21 20 19 19 18 17 17 17 17 16 14 12 12 13 17 27 34 32 27 21 17 16 11 11 11 10 1 4 1 15 16 10 4 9 9 2 9 4 16 20
18 19 20 22 23 23 22 21 20 19 19 19 18 19 18 16 15 9 11 14 18 32 35 31 25 19 21 13 16 14 13 8 11 7 11 18 10 4 9 10 2 1 3 14 17
18 18 18 19 20 22 24 23 22 21 21 20 19 20 19 17 9 5 5 8 16 23 34 35 32 27 25 20 14 17 18 15 3 6 13 22 12 11 6 6 4 2 5 4 12
20 19 18 18 18 19 20 23 24 24 23 23 22 22 21 18 2 10 7 5 13 22 29 37 35 31 28 22 16 19 13 15 21 9 18 23 15 7 11 11 11 7 7 3 11
20 21 21 20 19 18 18 19 20 23 26 27 26 26 26 12 10 11 10 12 15 23 27 34 38 33 29 26 23 15 14 17 14 20 19 28 16 16 17 14 13 8 4 7 12
22 22 22 22 21 20 20 20 19 19 22 26 29 30 28 5 10 12 13 13 17 19 26 32 33 31 32 29 26 21 22 20 15 14 18 28 24 22 15 19 16 10 4 7 12
25 23 23 24 23 22 21 21 21 22 21 21 25 31 18 7 20 24 11 12 15 18 17 24 28 29 29 30 28 21 19 22 17 9 29 35 29 22 18 21 21 16 7 8 13
28 26 24 25 26 24 22 24 23 23 24 23 24 25 19 17 19 16 14 11 14 17 16 20 23 29 28 27 29 24 24 17 17 11 19 35 25 22 24 26 21 17 10 10 14
29 29 28 28 28 27 23 25 26 26 26 25 26 22 17 13 11 11 16 14 14 18 19 19 19 32 33 27 30 28 23 21 20 14 7 33 24 30 30 29 24 20 20 12 16
31 30 28 28 30 30 25 25 27 28 32 28 25 22 12 11 13 12 18 18 17 16 26 24 26 35 36 34 32 29 25 24 25 20 19 29 30 30 31 32 28 24 25 22 9
33 32 30 28 28 28 29 28 30 33 37 28 26 29 19 20 22 18 13 26 29 30 25 25 38 33 28 30 31 32 30 31 29 21 22 30 30 30 34 34 33 25 28 23 16
32 33 29 25 26 28 28 26 28 31 37 36 26 32 25 30 27 25 28 22 26 31 31 34 18 33 30 29 27 32 36 38 32 20 22 26 32 38 37 38 34 30 27 24 23
29 31 31 23 20 25 24 24 24 26 25 37 18 20 24 34 38 26 32 32 27 28 28 30 29 18 33 36 29 35 44 39 34 29 26 14 10 30 38 41 40 32 32 32 28
32 30 27 29 16 22 22 21 21 19 6 11 4 10 10 33 26 35 33 36 35 31 29 29 29 33 33 34 36 43 34 37 36 34 33 34 19 31 31 47 47 41 38 29 28
37 35 32 26 25 19 20 22 18 9 9 6 9 12 16 18 38 16 40 39 37 31 33 34 26 21 32 28 27 32 30 31 33 36 21 34 31 33 30 33 41 41 38 27 26
41 38 35 29 21 25 16 18 12 12 7 7 9 14 19 14 35 19 41 47 43 38 41 34 37 33 28 30 30 32 33 21 14 16 11 32 31 32 29 30 38 37 39 39 29
43 41 32 27 26 24 19 19 19 7 25 17 17 11 19 18 18 36 28 51 47 37 19 37 28 42 36 43 36 37 40 28 10 5 8 33 16 32 32 31 31 31 33 37 31
44 38 30 26 25 26 23 31 16 22 10 19 29 15 16 20 16 27 40 43 44 53 37 18 35 38 36 39 37 41 40 34 40 33 13 20 25 37 33 29 35 36 36 39 39
44 40 20 20 24 24 28 40 25 23 17 12 11 3 4 7 9 7 21 25 43 36 46 46 23 22 28 36 39 39 34 31 29 14 18 15 19 36 35 38 30 40 39 38 42
35 35 7 19 29 26 37 38 40 30 27 16 16 22 24 28 22 26 15 19 12 33 36 43 44 41 27 38 39 44 46 37 37 32 11 5 33 44 38 38 29 26 34 41 42
27 26 7 21 24 18 25 34 28 27 32 33 28 27 27 33 36 32 25 24 8 15 18 45 40 43 44 40 34 35 46 44 32 25 36 42 48 19 26 31 35 33 30 43 46
28 22 4 7 8 20 20 14 14 20 23 24 21 21 24 24 20 15 17 20 26 29 11 9 41 36 38 45 48 45 36 53 53 40 42 20 24 39 42 34 26 17 18 37 46
25 21 19 8 3 8 14 19 21 17 19 22 24 25 27 27 24 20 26 18 17 17 23 26 34 32 34 46 42 34 49 38 51 44 38 56 35 34 34 36 37 37 26 21 38
20 19 17 21 17 22 22 11 13 9 7 13 20 20 19 24 29 33 34 34 31 29 19 19 24 29 39 37 47 46 40 48 45 54 51 51 40 43 38 37 17 12 25 24 27
19 17 19 20 20 18 15 12 13 8 12 10 10 20 22 19 16 25 29 32 30 20 14 14 16 16 27 30 46 51 45 47 44 40 56 49 46 39 39 40 42 30 25 32 34
15 14 18 24 21 22 13 8 14 14 1 7 11 15 12 21 23 23 24 29 33 28 13 16 12 23 12 19 36 41 61 49 45 46 42 49 50 38 36 32 31 33 28 28 27
Wind_Direction
285 283 283 284 285 286 284 284 285 289 294 298 299 293 289 289 280 262 247 232 220 220 225 232 231 226 255 273 251 277 295 360 353 55 180 162 157 141 127 71 118 126 113 167 160
292 286 283 281 283 284 284 280 279 278 283 288 291 294 294 292 299 278 248 234 211 211 216 221 228 237 242 253 249 242 252 214 50 94 168 178 188 220 150 144 218 154 137 170 171
301 296 291 285 280 278 278 278 277 275 274 277 283 287 293 296 298 268 250 227 204 208 209 219 223 219 232 223 217 246 258 256 309 228 265 194 193 182 182 201 98 111 311 173 183
310 306 302 296 288 280 274 273 273 273 273 272 274 279 287 292 297 307 272 221 190 199 203 213 220 227 226 222 182 240 236 265 130 178 223 196 201 202 260 276 221 263 2 167 192
305 303 302 301 298 293 285 276 272 270 271 270 268 270 275 283 12 262 219 214 208 195 202 209 217 225 228 223 208 239 226 234 265 255 193 197 224 244 208 229 194 213 325 206 180
303 300 298 298 298 296 293 289 281 273 268 267 268 267 267 270 260 248 254 234 227 209 202 206 211 220 231 231 233 223 261 262 295 227 210 211 190 198 200 217 209 230 294 206 191
305 304 300 296 293 293 294 292 289 283 272 269 267 266 268 210 251 242 243 227 210 206 209 205 204 209 220 231 235 256 277 270 234 257 236 201 186 193 219 219 220 227 207 212 200
304 302 301 299 296 293 293 292 290 285 279 272 272 273 266 225 241 241 222 209 203 178 202 207 200 205 215 227 233 249 264 279 210 250 219 199 188 211 210 216 218 213 220 215 213
300 299 298 297 296 294 295 292 288 284 283 279 273 276 290 260 249 248 237 202 198 175 155 196 202 203 200 216 234 241 258 251 243 227 214 199 203 210 199 207 223 219 231 226 211
298 294 294 294 293 292 292 288 286 286 280 276 273 272 267 238 233 218 227 204 199 182 173 187 197 206 202 207 226 224 235 245 238 199 240 212 217 192 194 210 225 233 216 230 227
297 292 287 285 287 291 290 287 283 279 270 266 262 264 245 219 235 198 212 196 196 211 201 198 209 213 207 205 218 227 232 241 215 239 307 243 217 206 208 214 222 233 226 220 238
303 297 290 284 278 281 285 289 292 285 282 272 270 266 246 238 234 197 176 199 198 208 201 208 220 213 216 213 218 223 230 230 229 241 279 219 210 201 207 219 222 234 231 234 230
309 304 299 290 278 275 275 282 288 288 291 284 281 260 250 222 233 209 188 205 210 208 204 214 222 214 215 213 220 227 227 232 243 246 283 232 200 192 208 214 219 229 250 249 244
318 312 305 301 285 271 269 273 279 293 304 293 291 269 238 221 227 205 200 197 211 213 203 228 218 219 217 215 216 231 218 234 249 262 275 206 235 210 207 209 217 222 243 245 246
308 307 311 308 291 268 266 263 271 285 311 286 255 239 232 219 229 216 203 199 213 214 208 216 218 218 225 222 216 227 227 238 250 257 263 263 248 242 224 215 213 230 239 241 249
298 299 297 302 302 277 259 253 252 250 244 242 256 243 239 217 218 202 201 203 213 219 229 236 223 221 225 228 227 226 233 243 254 254 248 252 237 222 216 229 229 222 228 241 240
287 287 292 291 293 283 255 239 222 220 193 231 198 227 246 246 204 194 203 202 204 210 226 231 236 233 230 232 230 230 234 238 251 238 238 251 237 230 239 237 224 228 229 237 234
295 288 284 295 281 275 257 219 218 248 224 237 246 223 222 229 232 212 200 208 211 208 227 223 238 226 224 227 226 227 228 218 221 221 252 248 235 245 246 246 238 240 238 229 225
301 293 297 281 278 262 239 218 224 218 240 249 249 261 233 215 227 227 225 222 218 218 216 221 235 242 233 220 224 225 235 239 236 246 277 259 256 257 248 246 242 247 238 231 226
311 307 314 267 237 235 229 230 232 212 230 256 307 267 275 218 261 291 235 233 229 234 226 228 251 244 239 221 223 230 230 227 222 221 239 242 243 241 243 242 253 253 252 232 228
318 316 258 243 217 224 232 234 236 230 244 279 259 281 275 302 288 298 270 217 233 226 231 231 231 249 247 227 220 221 231 232 234 230 230 236 252 244 244 244 262 273 253 231 225
326 326 285 253 236 246 259 258 264 257 247 259 273 277 289 292 288 279 269 256 181 234 250 228 232 234 239 232 230 237 230 230 221 216 230 237 246 250 245 255 262 277 265 237 227
322 330 295 313 255 245 245 231 244 247 249 267 269 269 271 278 289 264 251 241 259 267 246 212 232 230 237 239 238 239 231 228 229 232 230 225 249 254 249 247 238 281 286 239 223
319 324 315 291 220 300 285 263 266 270 278 268 272 271 276 274 256 272 268 269 246 257 240 254 249 239 236 231 231 231 232 233 228 221 228 236 238 247 253 254 260 266 265 258 237
312 313 317 301 288 306 317 318 323 308 265 275 280 275 296 296 288 274 282 279 275 279 277 268 262 254 250 242 229 231 231 228 232 229 224 236 237 237 244 244 235 225 238 241 224
305 309 304 296 310 313 325 306 310 304 321 304 316 267 274 281 316 306 291 286 291 264 281 258 307 299 277 240 226 229 232 230 226 237 234 236 244 245 247 250 239 240 252 239 224
313 306 302 300 306 312 319 283 304 319 249 311 319 292 278 273 265 287 298 292 275 282 291 303 328 330 291 238 220 225 228 229 231 234 239 233 239 246 235 236 229 237 239 240 231
Height
3161 3159 3157 3156 3155 3154 3153 3152 3151 3150 3148 3147 3146 3144 3144 3144 3143 3142 3145 3150 3151 3157 3162 3165 3169 3173 3171 3172 3175 3176 3174 3167 3167 3167 3170 3172 3172 3175 3176 3175 3177 3177 3178 3179 3179
3156 3155 3153 3153 3152 3150 3149 3148 3147 3147 3145 3144 3143 3141 3140 3140 3140 3139 3140 3142 3146 3151 3158 3162 3166 3168 3170 3172 3171 3173 3173 3171 3171 3170 3170 3168 3168 3170 3173 3175 3175 3176 3178 3179 3180
3154 3152 3150 3148 3148 3147 3145 3144 3143 3143 3142 3141 3140 3138 3137 3137 3137 3136 3136 3138 3141 3146 3154 3158 3161 3164 3166 3169 3171 3170 3169 3169 3170 3169 3171 3170 3170 3169 3170 3172 3173 3175 3177 3178 3180
3151 3149 3147 3145 3144 3143 3141 3140 3139 3138 3138 3137 3136 3134 3134 3135 3137 3135 3135 3135 3137 3142 3147 3152 3157 3158 3162 3165 3167 3166 3166 3168 3172 3171 3170 3167 3168 3168 3170 3172 3174 3176 3177 3179 3179
3148 3146 3144 3142 3141 3139 3137 3136 3135 3134 3133 3132 3131 3130 3130 3131 3133 3132 3133 3134 3135 3138 3142 3147 3152 3156 3158 3162 3165 3163 3163 3165 3171 3172 3169 3169 3166 3166 3170 3172 3174 3176 3176 3178 3179
3146 3143 3140 3139 3137 3136 3134 3131 3130 3129 3128 3127 3126 3125 3124 3128 3127 3128 3128 3131 3133 3134 3137 3141 3147 3154 3156 3158 3160 3160 3160 3160 3165 3169 3170 3170 3171 3167 3169 3172 3173 3174 3176 3177 3179
3142 3140 3137 3135 3133 3131 3130 3128 3125 3123 3122 3121 3121 3118 3118 3123 3124 3124 3125 3127 3128 3131 3134 3138 3145 3148 3151 3153 3156 3157 3156 3155 3156 3164 3166 3170 3169 3166 3165 3166 3171 3173 3175 3175 3177
3138 3135 3133 3130 3128 3126 3125 3123 3121 3118 3117 3116 3115 3113 3111 3118 3116 3115 3121 3123 3124 3125 3131 3136 3141 3146 3147 3151 3151 3153 3154 3153 3152 3157 3159 3162 3162 3162 3163 3165 3168 3171 3173 3175 3176
3132 3130 3128 3125 3122 3121 3120 3117 3115 3113 3113 3111 3110 3109 3108 3110 3111 3114 3116 3120 3122 3124 3127 3133 3137 3140 3145 3146 3147 3149 3149 3151 3149 3154 3158 3157 3157 3158 3161 3163 3164 3165 3167 3171 3174
3125 3123 3122 3120 3118 3115 3115 3111 3108 3106 3106 3105 3104 3108 3107 3107 3106 3107 3112 3116 3118 3122 3124 3128 3132 3134 3137 3139 3139 3145 3148 3148 3148 3151 3156 3154 3153 3153 3157 3161 3162 3164 3165 3167 3170
3117 3116 3116 3115 3112 3110 3111 3107 3105 3101 3097 3098 3099 3100 3103 3102 3103 3103 3106 3111 3115 3119 3119 3123 3125 3122 3129 3135 3140 3144 3146 3145 3144 3147 3151 3148 3150 3150 3152 3158 3161 3162 3164 3168 3169
3108 3108 3107 3107 3106 3105 3103 3102 3099 3094 3088 3093 3093 3090 3097 3098 3097 3100 3103 3106 3108 3109 3117 3121 3114 3122 3129 3133 3136 3139 3141 3139 3140 3144 3149 3147 3146 3147 3149 3150 3154 3159 3162 3164 3169
3103 3100 3100 3100 3099 3099 3097 3098 3094 3090 3084 3077 3084 3082 3087 3089 3088 3092 3094 3099 3101 3106 3109 3110 3114 3120 3125 3128 3132 3133 3136 3133 3139 3142 3145 3144 3145 3147 3149 3152 3154 3156 3158 3160 3163
3098 3094 3092 3095 3096 3090 3090 3091 3089 3088 3083 3072 3074 3072 3075 3078 3078 3087 3088 3094 3098 3099 3106 3107 3112 3115 3118 3120 3127 3127 3130 3133 3137 3142 3142 3144 3145 3146 3148 3148 3149 3150 3153 3155 3158
3092 3089 3088 3083 3087 3084 3087 3086 3085 3089 3088 3073 3069 3068 3067 3069 3074 3077 3084 3087 3089 3093 3101 3096 3102 3108 3110 3113 3122 3119 3130 3132 3135 3138 3139 3138 3139 3137 3141 3141 3143 3145 3148 3151 3153
3085 3082 3081 3082 3078 3078 3078 3080 3082 3089 3077 3068 3065 3064 3064 3065 3070 3075 3079 3084 3090 3093 3094 3095 3101 3103 3105 3113 3117 3123 3127 3128 3130 3132 3128 3128 3132 3128 3128 3133 3138 3142 3143 3145 3148
3075 3074 3073 3075 3074 3069 3073 3075 3081 3073 3066 3063 3061 3061 3064 3064 3067 3071 3073 3075 3078 3085 3084 3091 3091 3098 3103 3107 3111 3116 3121 3122 3122 3119 3114 3121 3123 3119 3123 3125 3129 3134 3137 3138 3143
3062 3061 3067 3066 3064 3061 3066 3070 3064 3056 3058 3054 3051 3056 3058 3063 3064 3066 3067 3069 3072 3077 3080 3085 3084 3087 3091 3094 3101 3105 3110 3109 3117 3113 3109 3113 3109 3109 3117 3120 3123 3126 3130 3135 3137
3049 3050 3055 3055 3052 3050 3056 3053 3047 3052 3050 3047 3045 3051 3053 3056 3059 3060 3060 3061 3065 3069 3075 3076 3074 3079 3083 3087 3095 3096 3099 3107 3106 3105 3107 3100 3103 3104 3111 3114 3116 3118 3122 3125 3129
3036 3036 3049 3043 3039 3041 3042 3037 3040 3045 3045 3046 3045 3047 3044 3046 3051 3051 3051 3053 3058 3063 3068 3069 3068 3069 3074 3082 3085 3087 3097 3099 3096 3101 3101 3094 3095 3089 3099 3104 3110 3112 3114 3116 3119
3033 3028 3041 3034 3032 3031 3026 3028 3034 3042 3043 3042 3042 3042 3042 3046 3047 3049 3045 3046 3052 3060 3060 3061 3064 3061 3067 3066 3071 3078 3079 3083 3088 3089 3089 3094 3074 3085 3092 3099 3103 3103 3102 3107 3108
3029 3027 3031 3022 3029 3026 3024 3027 3033 3033 3036 3037 3037 3036 3039 3038 3035 3039 3038 3044 3043 3047 3046 3054 3053 3049 3049 3055 3061 3066 3069 3075 3077 3076 3074 3073 3052 3079 3088 3094 3097 3097 3094 3097 3101
3025 3023 3022 3020 3019 3018 3017 3020 3021 3024 3025 3027 3028 3029 3029 3031 3030 3027 3028 3034 3033 3036 3039 3040 3035 3041 3040 3045 3048 3052 3056 3061 3064 3070 3065 3065 3061 3074 3082 3088 3090 3089 3092 3094 3100
3024 3021 3018 3018 3016 3014 3012 3014 3016 3019 3019 3021 3019 3019 3019 3021 3024 3017 3019 3024 3026 3029 3032 3033 3028 3027 3022 3029 3042 3042 3046 3051 3054 3055 3057 3044 3062 3069 3074 3079 3083 3085 3090 3092 3094
3022 3020 3019 3014 3013 3013 3012 3014 3012 3011 3012 3013 3014 3015 3014 3013 3013 3015 3015 3015 3020 3023 3024 3023 3016 3019 3015 3021 3027 3031 3037 3041 3039 3043 3041 3044 3052 3064 3070 3075 3077 3080 3086 3086 3090
3019 3018 3015 3013 3011 3010 3009 3010 3009 3007 3008 3009 3009 3009 3009 3009 3011 3006 3008 3010 3012 3019 3019 3019 3013 3010 3003 3011 3016 3019 3026 3028 3031 3036 3038 3042 3044 3055 3063 3066 3068 3073 3078 3081 3084
3016 3015 3012 3009 3008 3007 3007 3006 3005 3006 3006 3005 3005 3004 3003 3003 3002 3001 3001 3003 3007 3013 3016 3014 3014 3010 3000 3005 3009 3014 2995 3015 3024 3028 3031 3032 3041 3048 3051 3054 3058 3065 3069 3072 3075